Regional Weather Roundup
Issued by NWS

Home | Current Version | Previous Version | Graphics & Text | Print | Product List | Glossary On
Versions: 1 2 3 4 5 6 7 8 9 10 11 12 13 14 15 16 17 18 19 20 21 22 23 24 25 26 27 28 29 30 31 32 33 34 35 36 37 38 39 40 41 42 43 44 45 46 47 48 49 50
000
ASUS43 KFSD 270710
RWRSD

WEATHER ROUNDUP FOR SOUTH DAKOTA
NATIONAL WEATHER SERVICE SIOUX FALLS SD
100 AM CST TUE JAN 27 2015

NOTE: "FAIR" INDICATES FEW OR NO CLOUDS BELOW 12,000 FEET WITH NO
SIGNIFICANT WEATHER AND/OR OBSTRUCTIONS TO VISIBILITY.


SDZ001>005-009-010-012>017-270800-
NORTHWEST AND NORTH CENTRAL SOUTH DAKOTA

CITY           SKY/WX    TMP DP  RH WIND       PRES   REMARKS
BUFFALO          N/A     44  31  60 W8        29.87F
FAITH            N/A     38  29  70 MISG      29.94S
MOBRIDGE       CLEAR     31  28  89 CALM      29.97R
$$

SDZ012>016-024>037-041>051-057-063-072>074-270800-
SOUTHWEST AND SOUTH CENTRAL SOUTH DAKOTA

CITY           SKY/WX    TMP DP  RH WIND       PRES   REMARKS
RAPID CTY ARPT CLEAR     34  26  72 W5        29.97F WCI  30
PIERRE         CLEAR     31  27  85 E6        29.98F WCI  25
CUSTER         CLEAR     50  20  30 W7        30.09S
ELLSWORTH AFB  CLEAR     42  26  53 W6        29.96F
PHILIP         CLEAR     29  26  89 CALM      29.97F
PINE RIDGE     CLEAR     39  28  64 SW6       30.04S
SPEARFISH      FAIR      50  25  37 W6        29.99F
WINNER         FAIR      37  29  72 SE12      30.00F
$$

SDZ004>011-016>023-039-040-270800-
NORTHEAST SOUTH DAKOTA

CITY           SKY/WX    TMP DP  RH WIND       PRES   REMARKS
ABERDEEN       CLEAR     27  25  92 SE3       30.02F
WATERTOWN      CLEAR     28  26  92 W3        30.02R
SISSETON         N/A     28  27  96 CALM      30.03R
$$

SDZ017-020-022-023-036>040-048>070-270800-
SOUTHEAST SOUTH DAKOTA

CITY           SKY/WX    TMP DP  RH WIND       PRES   REMARKS
SIOUX FALLS    CLEAR     30  28  92 W6        30.05R WCI  24
HURON          CLEAR     27  26  96 SE3       30.03F
CHAMBERLAIN    CLEAR     31  29  90 SE5       30.02F WCI  27
MITCHELL       CLEAR     30  29  96 CALM      30.05F
YANKTON        CLEAR     30  27  86 W3        30.07S
$$

ABBREVIATIONS USED IN REMARKS
   TC - TEMPERATURE IN CELSIUS
  WCI - WIND CHILL INDEX
   HX - HEAT INDEX
  VSB - VISIBILITY




USA.gov is the U.S. government's official web portal to all federal, state and local government web resources and services.